Regional Weather Roundup
Issued by NWS

Home | Current Version | Previous Version | Text Only | Print | Product List | Glossary On
Versions: 1 2 3 4 5 6 7 8 9 10 11 12 13 14 15 16 17 18 19 20 21 22 23 24 25 26 27 28 29 30 31 32 33 34 35 36 37 38 39 40 41 42 43 44 45 46 47 48 49 50
993
ASUS45 KREV 220410
RWRNV
NEVADA REGIONAL WEATHER ROUNDUP
NATIONAL WEATHER SERVICE RENO NV
900 PM PDT MON MAY 21 2018

NOTE: "FAIR" INDICATES FEW OR NO CLOUDS BELOW 12,000 FEET WITH NO
SIGNIFICANT WEATHER AND/OR OBSTRUCTIONS TO VISIBILITY.

NVZ001-003-004-220500-
WESTERN NEVADA

CITY           SKY/WX    TMP DP  RH WIND       PRES   REMARKS
RENO           LGT RAIN  59  50  72 E5        29.95R
CARSON CITY    CLOUDY    55  48  76 CALM      29.97R
MINDEN         MOCLDY    50  50 100 SE3       29.97S
SLIDE MTN        N/A     36  36 100 N10         N/A
FALLON         MOCLDY    58  53  84 NW6       29.92R
LOVELOCK       MOCLDY    58  49  72 NE12      29.92R
$$

NVZ002-CAZ072-073-220500-
NORTHERN AND CENTRAL SIERRA

CITY           SKY/WX    TMP DP  RH WIND       PRES   REMARKS
S. LAKE TAHOE  CLOUDY    48  47  96 CALM      29.99S
TRUCKEE        CLOUDY    50  46  87 CALM      30.01R
SQUAW VLY 8000 NOT AVBL
BLUE CANYON    LGT RAIN  53  52  96 CALM      29.97F
MAMMOTH LAKES  CLOUDY    45  44  96 CALM      30.03R
BRIDGEPORT     LGT RAIN  48  41  76 CALM      29.98F
$$

NVZ030-031-036-220500-
NORTHERN NEVADA

CITY           SKY/WX    TMP DP  RH WIND       PRES   REMARKS
ELKO           MOCLDY    57  45  64 NW5       29.98R
WINNEMUCCA     CLOUDY    53  51  93 NE6       29.96S
WENDOVER       CLOUDY    62  47  57 NW9       29.93R
$$

NVZ035-037-220500-
CENTRAL NEVADA

CITY           SKY/WX    TMP DP  RH WIND       PRES   REMARKS
ELY            CLOUDY    47  43  86 NW10      30.00F
EUREKA           N/A     50  45  83 N5        29.98R
$$

NVZ013-014-220500-
SOUTH CENTRAL NEVADA

CITY           SKY/WX    TMP DP  RH WIND       PRES   REMARKS
TONOPAH        MOCLDY    53  45  74 NE9       29.95R
$$

NVZ017-020-022-220500-
SOUTHERN NEVADA

CITY           SKY/WX    TMP DP  RH WIND       PRES   REMARKS
LAS VEGAS      CLOUDY    76  39  26 N17       29.73R
N. LAS VEGAS   CLOUDY    76  37  24 NW17      29.73R
NELLIS AFB     MOCLDY    77  39  26 W8        29.72R
HENDERSON      CLOUDY    75  37  25 N10       29.77R
MERCURY        MOCLDY    67  40  37 E14       29.79R
$$




USA.gov is the U.S. government's official web portal to all federal, state and local government web resources and services.